Regional Weather Roundup
Issued by NWS Boston, MA

Current Version | Previous Version | Text Only | Print | Product List | Glossary Off
Versions: 1 2 3 4 5 6 7 8 9 10 11 12 13 14 15 16 17 18 19 20 21 22 23 24 25 26 27
000 ASUS41 KBOX 260310 RWRBOX REGIONAL WEATHER ROUNDUP NATIONAL WEATHER SERVICE TAUNTON MA 1100 PM EDT SAT MAR 25 2017 NOTE: "FAIR" INDICATES FEW OR NO CLOUDS BELOW 12,000 FEET WITH NO SIGNIFICANT WEATHER AND/OR OBSTRUCTIONS TO VISIBILITY. MAZALL-260400- EASTERN MASSACHUSETTS CITY SKY/WX TMP DP RH WIND PRES REMARKS BOSTON CLOUDY 36 32 85 NW8 30.42R WCI 30 BEVERLY CLOUDY 30 29 96 N6 30.41R WCI 24 LAWRENCE CLOUDY 31 29 92 N6 30.43R WCI 25 BEDFORD CLOUDY 29 26 89 W5 30.41R WCI 24 BLUE HILL N/A 32 31 96 N9 30.37R WCI 24 NORWOOD FOG 27 26 96 CALM 30.42R VSB 1/4 MARSHFIELD PTCLDY 32 32 100 CALM 30.41R FOG PLYMOUTH MOCLDY 30 29 96 N3 30.40S TAUNTON FOG 29 27 92 CALM 30.41R VSB 1/4 NEW BEDFORD CLOUDY 31 28 89 CALM 30.40R FOG $$ MAZALL-260400- CAPE COD AND THE ISLANDS CITY SKY/WX TMP DP RH WIND PRES REMARKS FALMOUTH MOCLDY 32 32 100 MISG 30.41R HYANNIS PTCLDY 34 32 92 N5 30.38R WCI 30 CHATHAM CLOUDY 35 33 92 VRB3 30.40R PROVINCETOWN CLEAR 36 34 92 NW8 30.41R WCI 30 NANTUCKET CLEAR 34 32 92 N6 30.39R WCI 29 MARTHAS VNYRD CLOUDY 34 30 85 NW6 30.40R WCI 29 $$ MAZALL-260400- CENTRAL AND WESTERN MASSACHUSETTS CITY SKY/WX TMP DP RH WIND PRES REMARKS WORCESTER CLEAR 33 28 81 N8 30.38R WCI 26 FITCHBURG PTCLDY N/A N/A N/A CALM 30.42R FOG ORANGE CLOUDY 31 30 96 CALM 30.41R SPRINGFIELD FOG 28 27 93 NE3 30.42R VSB 3/4 WESTFIELD PTCLDY 29 28 96 NE3 30.42R FOG NORTH ADAMS MOCLDY 33 30 88 CALM 30.42R PITTSFIELD MOCLDY 30 28 92 W6 30.38R WCI 24 $$ RIZALL-260400- RHODE ISLAND CITY SKY/WX TMP DP RH WIND PRES REMARKS PROVIDENCE PTCLDY 36 33 89 CALM 30.41R NEWPORT CLEAR 35 34 96 CALM 30.40R BLOCK ISLAND CLOUDY 39 36 89 NE6 30.40S SMITHFIELD CLEAR 30 29 96 N5 30.40R WCI 25 WESTERLY PTCLDY 40 36 86 CALM 30.41R $$ CTZALL-260400- CONNECTICUT CITY SKY/WX TMP DP RH WIND PRES REMARKS BRADLEY INTL PTCLDY 33 32 96 N7 30.42R WCI 27 HARTFORD CLEAR 36 33 89 N7 30.43R WCI 30 BRIDGEPORT CLOUDY 41 35 79 NE9 30.41R DANBURY CLOUDY 39 37 92 NE3 30.40R GROTON CLOUDY 41 35 79 NE9 30.40R NEW HAVEN CLEAR 36 33 89 N6 30.41R WCI 31 CHESTER NOT AVBL MERIDEN CLEAR 38 33 82 N3 30.41S WILLIMANTIC FOG 33 32 96 CALM 30.42R VSB 3/4 OXFORD CLOUDY 37 30 75 N6 30.39S $$ MEZ002-015-021-024-NHZ003-005-008-011-012-014-VTZ005-008-260400- NORTHERN NEW ENGLAND CITY SKY/WX TMP DP RH WIND PRES REMARKS PORTLAND ME PTCLDY 33 20 58 N9 30.41R WCI 25 BANGOR ME CLEAR 32 7 35 NW6 30.40R WCI 26 CONCORD NH CLEAR 27 24 89 S3 30.42R MANCHESTER NH NOT AVBL NASHUA NH NOT AVBL PORTSMOUTH NH PTCLDY 28 27 96 NW5 30.40R WCI 23 JAFFREY NH CLOUDY 29 26 89 CALM 30.38 KEENE NH FOG 28 27 96 CALM 30.43R VSB 3/4 BURLINGTON VT CLEAR 26 16 65 N3 30.48R MT. WASHINGTON PTCLDY 14 -22 18 N41G48 N/A WCI -10 $$ NYZ052-076-260400- EASTERN NEW YORK CITY SKY/WX TMP DP RH WIND PRES REMARKS ALBANY CLOUDY 34 26 72 N8 30.46R WCI 27 NEW YORK CITY CLOUDY 45 38 76 NE14 30.38R $$ ANZALL-260400- MARINE OBSERVATIONS STATION/POSITION TIME TEMP WIND PRES VSBY WAVE AIR SEA DIR/SP/G HT/PER (UTC) (F) (DEG/KT/KT) (MB) (MI) (FT/S) BOSTON BUOY 0150 38 40 310/ 6/ 8 1028.6 2/ 5 BUZZARDS BAY 0200 36 50/ 8/ 8 1029.6R NANTUCKET SOUND 0250 39 1029.1R 1/ 4 MASS BAY-STELLWA 0204 37 39 300/ 8/ 10 1028.0R 1/ 5 ISLE OF SHOALS 0200 36 280/ 7/ 8 1029.1R S OF BLOCK IS 0255 40 N/A 4/ 8 $$ ......................KEY......................... SKY/WX - SKY CONDITION/PRESENT WEATHER TMP - TEMPERATURE IN FAHRENHEIT DWPT - DEWPOINT IN FAHRENHEIT RH - RELATIVE HUMIDITY IN PERCENT WIND - DIRECTION AND SPEED IN MPH PRES - MEAN SEA LEVEL PRESSURE IN INCHES OF HG WCI - WIND CHILL INDEX VSB - VISIBILITY IN MILES HX - HEAT INDEX TC - TEMPERATURE IN CELSIUS VRB - VARIABLE WIND DIRECTION N/A - NOT AVAILABLE

USA.gov is the U.S. government's official web portal to all federal, state and local government web resources and services.